TimePST,TemperatureF,Dew PointF,Humidity,Sea Level PressureIn,VisibilityMPH,Wind Direction,Wind SpeedMPH,Gust SpeedMPH,PrecipitationIn,Events,Conditions,WindDirDegrees,DateUTC
12:53 AM,48.9,33.1,54,30.48,10.0,Variable,5.8,-,N/A,,Scattered Clouds,0,2014-01-14 08:53:00
1:53 AM,50.0,33.1,52,30.49,10.0,WNW,3.5,16.1,N/A,,Mostly Cloudy,300,2014-01-14 09:53:00
2:53 AM,50.0,32.0,50,30.52,10.0,Variable,5.8,16.1,N/A,,Clear,0,2014-01-14 10:53:00
3:53 AM,39.0,30.0,70,30.54,10.0,SSE,3.5,-,N/A,,Clear,150,2014-01-14 11:53:00
4:53 AM,30.9,28.0,89,30.56,10.0,North,4.6,-,N/A,,Clear,10,2014-01-14 12:53:00
5:53 AM,32.0,28.9,88,30.58,10.0,NNE,6.9,-,N/A,,Clear,30,2014-01-14 13:53:00
6:53 AM,32.0,28.9,88,30.58,10.0,NNE,5.8,-,N/A,,Clear,30,2014-01-14 14:53:00
7:53 AM,30.9,28.9,92,30.61,10.0,North,8.1,-,N/A,,Clear,360,2014-01-14 15:53:00
8:53 AM,36.0,32.0,86,30.63,10.0,NNE,6.9,-,N/A,,Clear,30,2014-01-14 16:53:00
9:53 AM,39.0,32.0,76,30.63,10.0,NNE,6.9,-,N/A,,Clear,30,2014-01-14 17:53:00
10:53 AM,43.0,34.0,71,30.61,10.0,NNE,4.6,-,N/A,,Clear,20,2014-01-14 18:53:00
11:53 AM,45.0,35.1,68,30.59,10.0,North,3.5,-,N/A,,Clear,10,2014-01-14 19:53:00
12:53 PM,48.0,35.1,61,30.56,10.0,Calm,Calm,-,N/A,,Clear,0,2014-01-14 20:53:00
1:53 PM,48.9,35.1,59,30.55,10.0,Calm,Calm,-,N/A,,Clear,0,2014-01-14 21:53:00
2:53 PM,50.0,35.1,57,30.54,10.0,NE,3.5,-,N/A,,Clear,40,2014-01-14 22:53:00
3:53 PM,46.9,35.1,63,30.55,10.0,NNW,3.5,-,N/A,,Clear,340,2014-01-14 23:53:00
4:53 PM,43.0,33.1,68,30.55,10.0,NNE,4.6,-,N/A,,Clear,30,2014-01-15 00:53:00
5:53 PM,39.0,32.0,76,30.53,10.0,NNW,3.5,-,N/A,,Clear,340,2014-01-15 01:53:00
6:53 PM,37.0,30.9,79,30.53,10.0,Calm,Calm,-,N/A,,Clear,0,2014-01-15 02:53:00
7:53 PM,34.0,28.9,82,30.53,10.0,NNE,5.8,-,N/A,,Clear,20,2014-01-15 03:53:00
8:53 PM,33.1,28.9,85,30.51,10.0,North,5.8,-,N/A,,Clear,360,2014-01-15 04:53:00
9:53 PM,35.1,30.9,85,30.50,10.0,North,6.9,-,N/A,,Clear,10,2014-01-15 05:53:00
10:53 PM,33.1,30.0,89,30.49,10.0,NNE,6.9,-,N/A,,Clear,20,2014-01-15 06:53:00
11:53 PM,32.0,30.0,92,30.47,10.0,NNE,5.8,-,N/A,,Clear,20,2014-01-15 07:53:00